sat.trackr.live / text

‹ back to catalog

KINEIS-1C

NORAD 60081 · 2024-114C

PAYLOAD ACTIVE UNKNOWN

§ Identity

Operator
Country
FR
Launch date
2024-06-20
Launch site
RLLB
Launch vehicle
Mass (kg)
RCS (m²)

External: N2YO · Heavens-Above · Gunter

§ Orbital elements

Epoch: 2026-05-25T04:13:03.275904Z

Period
97.26 min
Inclination
97.9854°
Eccentricity
0.0000628
Mean motion
14.80582866 rev/d
Perigee alt
627.0 km
Apogee alt
627.9 km
Semi-major
7,005.6 km
B*
1.0133e-4
RAAN
169.3154°
Arg perigee
110.2535°
Mean anomaly
249.8744°
Rev number
10,397

§ Raw data

KINEIS-1C1 60081U 24114C   26145.17573236  .00000724  00000+0  10133-3 0  99922 60081  97.9854 169.3154 0000628 110.2535 249.8744 14.80582866103977

JSON: /api/v1/satellites/60081 · /tle

For live sub-satellite position, see the globe view (requires WebGL).

§ Visibility from observer

Set your observer location to see the next 7 days of passes ≥ 10°. The values pass through the URL so the page stays shareable.

No JS? Fill the form by hand. The geolocation button needs JavaScript.

§ Radio — SatNOGS DB

ModeDescriptionDownlinkUplink
BPSK S-band telemetry 2.261 GHz

1 transmitter · refreshed weekly from db.satnogs.org